Terug naar catalogus

CZ-6A DEB

ActiefPO
NORAD 56583·DEBRIS·🇨🇳 China

Gelanceerd Nov 11, 2022 vanaf Taiyuan Satellite Launch Center

Loading…

Volgende Passages (komende 24 uur)

TLE

VersSource: Space-Track

Epoch: Sep 14, 2026, 04:57 UTC

1 56583U 22151ADF 26257.20639675  .00020937  00000-0  17477-2 0  9997
2 56583  98.6189 350.7903 0044132 289.6097  70.0361 14.97827590186657

Volg CZ-6A DEB in realtime met AllMySat

Download on the App Store